Вернуться в каталог

STARLINK-35851

АктивенСвязьVLEO
NORAD 66356·PAYLOAD·🇺🇸 United States

Запущен Nov 6, 2025 с Vandenberg Space Force Base

Loading…

Ближайшие Пролёты (ближайшие 24 часа)

TLE

СвежийSource: CelesTrak SupGP

Эпоха: Sep 15, 2026, 02:28 UTC

1 66356C 25254J   26258.10326389 -.00022810  00000+0 -67397-3 0  2586
2 66356  53.1574  70.6409 0001061  81.7210 292.5967 15.34399772    17

Отслеживайте STARLINK-35851 в реальном времени с AllMySat

Download on the App Store